When you browse on this site, cookies collect data to enhance your experience and personalize the content and advertising you see.
Visit our Privacy Policy to learn more. By continuing to use the site, you agree to this use of cookies and data.
  • en Suisse
  • Liste des pays
  • À 7 jours
  • Température de l'eau
  • Carte météo
  • Widgets météo
  • user-avatar
    Se connecter

    Météo par heure à Soledar

    Ce jour, 23 Février, Dimanche

    Heure Température Précipitation Vent Pression Humidité
    00:00 +1°C° 0 mm 0 m/s 757 mmHg 98%
    01:00 +2°C° 0 mm 1 m/s 757 mmHg 98%
    02:00 +2°C° 0 mm 1 m/s 756 mmHg 98%
    03:00 +2°C° 0 mm 1 m/s 756 mmHg 98%
    04:00 +2°C° 0 mm 1 m/s 756 mmHg 98%
    05:00 +1°C° 0 mm 2 m/s 755 mmHg 98%
    06:00 +1°C° 0 mm 2 m/s 755 mmHg 97%
    07:00 0°C° 0 mm 3 m/s 755 mmHg 96%
    08:00 0°C° 0 mm 3 m/s 755 mmHg 94%
    09:00 -1°C° 0 mm 4 m/s 754 mmHg 92%
    10:00 -1°C° 0 mm 5 m/s 754 mmHg 88%
    11:00 0°C° 0 mm 5 m/s 754 mmHg 85%
    12:00 -1°C° 0 mm 6 m/s 753 mmHg 81%
    13:00 0°C° 0.1 mm 7 m/s 753 mmHg 83%
    14:00 0°C° 0.1 mm 7 m/s 752 mmHg 84%
    15:00 0°C° 0.1 mm 8 m/s 752 mmHg 85%
    16:00 -1°C° 0.4 mm 8 m/s 751 mmHg 89%
    17:00 -1°C° 0.4 mm 8 m/s 750 mmHg 92%
    18:00 -1°C° 0.4 mm 9 m/s 749 mmHg 96%
    19:00 -1°C° 0.3 mm 9 m/s 749 mmHg 95%
    20:00 0°C° 0.3 mm 8 m/s 749 mmHg 94%
    21:00 0°C° 0.3 mm 8 m/s 748 mmHg 94%
    22:00 0°C° 0 mm 9 m/s 748 mmHg 91%
    23:00 0°C° 0 mm 9 m/s 747 mmHg 87%

    Demain, 24 Février, Lundi

    Heure Température Précipitation Vent Pression Humidité
    00:00 +1°C° 0 mm 9 m/s 747 mmHg 84%
    01:00 0°C° 0 mm 8 m/s 747 mmHg 85%
    02:00 0°C° 0 mm 8 m/s 747 mmHg 86%
    03:00 0°C° 0 mm 7 m/s 746 mmHg 87%
    04:00 +1°C° 0.1 mm 6 m/s 746 mmHg 90%
    05:00 +1°C° 0.1 mm 6 m/s 745 mmHg 92%
    06:00 +1°C° 0.1 mm 5 m/s 744 mmHg 95%
    07:00 +1°C° 0.3 mm 6 m/s 743 mmHg 94%
    08:00 0°C° 0.3 mm 7 m/s 742 mmHg 94%
    09:00 0°C° 0.3 mm 8 m/s 742 mmHg 93%
    10:00 +1°C° 0.5 mm 9 m/s 740 mmHg 94%
    11:00 +1°C° 0.5 mm 10 m/s 739 mmHg 94%
    12:00 +1°C° 0.5 mm 11 m/s 738 mmHg 95%
    13:00 +1°C° 0.9 mm 10 m/s 736 mmHg 95%
    14:00 +1°C° 0.9 mm 10 m/s 735 mmHg 95%
    15:00 +1°C° 0.9 mm 9 m/s 734 mmHg 95%
    16:00 +1°C° 0.4 mm 8 m/s 733 mmHg 95%
    17:00 +2°C° 0.4 mm 7 m/s 732 mmHg 94%
    18:00 +3°C° 0.4 mm 6 m/s 732 mmHg 93%
    19:00 +2°C° 0.2 mm 5 m/s 732 mmHg 93%
    20:00 +2°C° 0.2 mm 5 m/s 732 mmHg 93%
    21:00 +3°C° 0.2 mm 4 m/s 732 mmHg 93%
    22:00 +1°C° 0.5 mm 6 m/s 733 mmHg 94%
    23:00 -1°C° 0.5 mm 9 m/s 733 mmHg 95%

    Après-demain, 25 Février, Mardi

    Heure Température Précipitation Vent Pression Humidité
    00:00 -3°C° 0.5 mm 11 m/s 734 mmHg 96%
    01:00 -3°C° 0.9 mm 11 m/s 736 mmHg 92%
    02:00 -3°C° 0.9 mm 12 m/s 737 mmHg 88%
    03:00 -3°C° 0.9 mm 12 m/s 739 mmHg 84%
    04:00 -3°C° 0 mm 11 m/s 740 mmHg 83%
    05:00 -3°C° 0 mm 10 m/s 742 mmHg 82%
    06:00 -3°C° 0 mm 9 m/s 743 mmHg 81%
    07:00 -4°C° 0 mm 9 m/s 745 mmHg 79%
    08:00 -4°C° 0 mm 8 m/s 746 mmHg 78%
    09:00 -4°C° 0 mm 8 m/s 748 mmHg 76%
    10:00 -2°C° 0 mm 8 m/s 748 mmHg 73%
    11:00 -2°C° 0 mm 7 m/s 749 mmHg 70%
    12:00 -1°C° 0 mm 7 m/s 749 mmHg 68%
    13:00 +1°C° 0 mm 6 m/s 750 mmHg 65%
    14:00 +1°C° 0 mm 6 m/s 750 mmHg 63%
    15:00 +2°C° 0 mm 5 m/s 750 mmHg 60%
    16:00 +1°C° 0 mm 4 m/s 750 mmHg 64%
    17:00 +1°C° 0 mm 4 m/s 750 mmHg 68%
    18:00 +1°C° 0 mm 3 m/s 750 mmHg 72%
    19:00 +1°C° 0 mm 3 m/s 751 mmHg 72%
    20:00 +1°C° 0 mm 3 m/s 751 mmHg 72%
    21:00 0°C° 0 mm 4 m/s 751 mmHg 72%
    22:00 0°C° 0 mm 4 m/s 751 mmHg 72%
    23:00 0°C° 0 mm 5 m/s 750 mmHg 72%

    26 Février, Mercredi

    Heure Température Précipitation Vent Pression Humidité
    00:00 0°C° 0 mm 5 m/s 750 mmHg 72%
    01:00 0°C° 0 mm 5 m/s 750 mmHg 75%
    02:00 0°C° 0 mm 5 m/s 749 mmHg 77%
    03:00 0°C° 0 mm 5 m/s 749 mmHg 80%
    04:00 0°C° 0 mm 5 m/s 749 mmHg 80%
    05:00 -1°C° 0 mm 6 m/s 748 mmHg 81%
    06:00 -1°C° 0 mm 6 m/s 748 mmHg 82%
    07:00 +1°C° 0 mm 6 m/s 748 mmHg 79%
    08:00 +1°C° 0 mm 6 m/s 748 mmHg 77%
    09:00 0°C° 0 mm 7 m/s 748 mmHg 75%
    10:00 +3°C° 0 mm 7 m/s 748 mmHg 70%
    11:00 +4°C° 0 mm 7 m/s 748 mmHg 65%
    12:00 +5°C° 0 mm 7 m/s 747 mmHg 59%
    13:00 +6°C° 0 mm 7 m/s 747 mmHg 59%
    14:00 +6°C° 0 mm 7 m/s 747 mmHg 58%
    15:00 +8°C° 0 mm 7 m/s 746 mmHg 57%
    16:00 +6°C° 0 mm 7 m/s 746 mmHg 61%
    17:00 +5°C° 0 mm 7 m/s 746 mmHg 65%
    18:00 +4°C° 0 mm 6 m/s 745 mmHg 69%
    19:00 +4°C° 0 mm 7 m/s 745 mmHg 70%
    20:00 +3°C° 0 mm 7 m/s 746 mmHg 71%
    21:00 +3°C° 0 mm 7 m/s 746 mmHg 73%
    22:00 +3°C° 0 mm 6 m/s 745 mmHg 72%
    23:00 +2°C° 0 mm 6 m/s 745 mmHg 72%

    27 Février, Jeudi

    Heure Température Précipitation Vent Pression Humidité
    00:00 +2°C° 0 mm 6 m/s 745 mmHg 71%
    01:00 +2°C° 0 mm 6 m/s 745 mmHg 70%
    02:00 +2°C° 0 mm 6 m/s 745 mmHg 69%
    03:00 +2°C° 0 mm 6 m/s 744 mmHg 68%
    04:00 +2°C° 0 mm 6 m/s 744 mmHg 70%
    05:00 +2°C° 0 mm 6 m/s 744 mmHg 71%
    06:00 +2°C° 0 mm 7 m/s 744 mmHg 72%
    07:00 +3°C° 0 mm 7 m/s 744 mmHg 73%
    08:00 +3°C° 0 mm 7 m/s 744 mmHg 74%
    09:00 +4°C° 0 mm 7 m/s 744 mmHg 75%
    10:00 +5°C° 0 mm 7 m/s 744 mmHg 70%
    11:00 +8°C° 0 mm 7 m/s 744 mmHg 65%
    12:00 +9°C° 0 mm 7 m/s 744 mmHg 60%
    13:00 +10°C° 0 mm 7 m/s 744 mmHg 60%
    14:00 +11°C° 0 mm 7 m/s 743 mmHg 60%
    15:00 +11°C° 0 mm 7 m/s 743 mmHg 61%
    16:00 +10°C° 0 mm 6 m/s 743 mmHg 64%
    17:00 +9°C° 0 mm 5 m/s 744 mmHg 68%
    18:00 +8°C° 0 mm 4 m/s 744 mmHg 72%
    19:00 +8°C° 0 mm 4 m/s 744 mmHg 76%
    20:00 +7°C° 0 mm 4 m/s 744 mmHg 81%
    21:00 +6°C° 0 mm 4 m/s 745 mmHg 85%
    22:00 +6°C° 0 mm 4 m/s 745 mmHg 87%
    23:00 +6°C° 0 mm 4 m/s 745 mmHg 89%

    28 Février, Vendredi

    Heure Température Précipitation Vent Pression Humidité
    00:00 +5°C° 0 mm 3 m/s 745 mmHg 91%
    01:00 +5°C° 0 mm 3 m/s 745 mmHg 92%
    02:00 +5°C° 0 mm 3 m/s 745 mmHg 92%
    03:00 +5°C° 0 mm 3 m/s 745 mmHg 93%
    04:00 +5°C° 0 mm 3 m/s 745 mmHg 93%
    05:00 +6°C° 0 mm 2 m/s 745 mmHg 93%
    06:00 +6°C° 0 mm 2 m/s 745 mmHg 93%
    07:00 +6°C° 0 mm 2 m/s 745 mmHg 93%
    08:00 +6°C° 0 mm 2 m/s 745 mmHg 92%
    09:00 +8°C° 0 mm 1 m/s 746 mmHg 91%
    10:00 +8°C° 0 mm 2 m/s 746 mmHg 85%
    11:00 +9°C° 0 mm 2 m/s 746 mmHg 79%
    12:00 +12°C° 0 mm 2 m/s 746 mmHg 74%
    13:00 +12°C° 0 mm 2 m/s 746 mmHg 70%
    14:00 +12°C° 0 mm 2 m/s 746 mmHg 66%
    15:00 +12°C° 0 mm 3 m/s 745 mmHg 62%
    16:00 +12°C° 0 mm 2 m/s 745 mmHg 66%
    17:00 +10°C° 0 mm 2 m/s 746 mmHg 69%
    18:00 +10°C° 0 mm 2 m/s 746 mmHg 72%
    19:00 +9°C° 0 mm 2 m/s 746 mmHg 75%
    20:00 +9°C° 0 mm 2 m/s 746 mmHg 77%
    21:00 +9°C° 0 mm 1 m/s 746 mmHg 80%
    22:00 +9°C° 0 mm 1 m/s 746 mmHg 81%
    23:00 +9°C° 0 mm 1 m/s 747 mmHg 82%
    Voir plus